WE8M Weather Reports


time (UTC)temp
F
wind
direction
speed
knots
gust
knots
rain 1hr
in
rain 24hr
in
rain mn
in
humidity
%
barometer
mb
20260505005945 69 223 5.2 7.0 0.00 0.00 0.00 54 1006.8
20260505005442 69 208 4.3 6.1 0.00 0.00 0.00 53 1006.9
20260505004940 69 180 4.3 6.1 0.00 0.00 0.00 53 1006.7
20260505004436 69 191 4.3 5.2 0.00 0.00 0.00 53 1006.6
20260505003933 69 215 4.3 6.1 0.00 0.00 0.00 54 1006.9
20260505003431 69 216 4.3 7.0 0.00 0.00 0.00 54 1006.8
20260505002927 69 191 4.3 7.0 0.00 0.00 0.00 54 1006.9
20260505002423 69 205 3.5 6.1 0.00 0.00 0.00 54 1006.9
20260505001922 70 212 5.2 7.8 0.00 0.00 0.00 53 1007.0
20260505001419 70 168 4.3 7.8 0.00 0.00 0.00 53 1006.7
20260505000916 70 201 3.5 7.0 0.00 0.00 0.00 52 1006.9
20260505000414 71 224 4.3 9.6 0.00 0.00 0.00 51 1006.8
20260504235910 71 223 3.5 7.8 0.00 0.00 0.00 52 1007.0
20260504235408 71 210 3.5 7.0 0.00 0.00 0.00 51 1007.1
20260504234903 72 215 7.0 8.7 0.00 0.00 0.00 49 1007.0
20260504234401 72 220 5.2 7.0 0.00 0.00 0.00 49 1007.1
20260504233857 72 218 4.3 7.0 0.00 0.00 0.00 50 1007.1
20260504233353 72 200 7.0 11.3 0.00 0.00 0.00 49 1006.7
20260504232850 71 233 5.2 7.0 0.00 0.00 0.00 51 1006.9
20260504232347 71 228 5.2 7.8 0.00 0.00 0.00 52 1007.0
20260504231844 71 214 4.3 6.1 0.00 0.00 0.00 54 1007.2
20260504231341 72 201 4.3 7.8 0.00 0.00 0.00 54 1007.2
20260504230837 72 199 3.5 8.7 0.00 0.00 0.00 53 1007.3
20260504230335 73 215 5.2 7.8 0.00 0.00 0.00 52 1007.5
20260504225833 73 176 7.0 8.7 0.00 0.00 0.00 51 1007.4
20260504225329 73 164 6.1 9.6 0.00 0.00 0.00 49 1007.2
20260504224827 73 160 7.8 12.2 0.00 0.00 0.00 51 1007.2
20260504224323 73 191 7.0 9.6 0.00 0.00 0.00 51 1007.3
20260504223820 73 205 6.1 8.7 0.00 0.00 0.00 51 1007.2
20260504223316 73 225 2.6 3.5 0.00 0.00 0.00 52 1007.4
20260504222813 74 240 3.5 6.1 0.00 0.00 0.00 50 1007.5
20260504222309 74 210 7.0 8.7 0.00 0.00 0.00 49 1007.6
20260504221808 74 245 6.1 12.2 0.00 0.00 0.00 49 1007.8
20260504221304 74 194 6.1 8.7 0.00 0.00 0.00 50 1007.8
20260504220801 74 226 5.2 7.0 0.00 0.00 0.00 51 1007.9
20260504220258 74 209 3.5 6.1 0.00 0.00 0.00 51 1007.8
20260504215755 75 192 6.1 7.8 0.00 0.00 0.00 50 1007.8
20260504215251 75 248 4.3 6.1 0.00 0.00 0.00 50 1007.8
20260504214747 74 199 3.5 5.2 0.00 0.00 0.00 52 1007.9
20260504214244 74 238 4.3 6.1 0.00 0.00 0.00 52 1008.1
20260504213741 74 199 5.2 7.8 0.00 0.00 0.00 50 1008.3
20260504213237 73 227 5.2 7.8 0.00 0.00 0.00 51 1008.3
20260504212734 73 239 5.2 6.1 0.00 0.00 0.00 50 1008.2
20260504212231 73 230 4.3 7.8 0.00 0.00 0.00 51 1008.2
20260504211729 73 222 3.5 7.0 0.00 0.00 0.00 53 1008.1
20260504211224 73 253 7.0 8.7 0.00 0.00 0.00 50 1008.2
20260504210722 73 232 3.5 9.6 0.00 0.00 0.00 52 1008.3
20260504210219 74 248 7.8 9.6 0.00 0.00 0.00 48 1008.3
20260504205716 75 217 5.2 7.0 0.00 0.00 0.00 49 1008.3
20260504205214 76 231 7.8 8.7 0.00 0.00 0.00 47 1008.3
20260504204712 75 229 7.0 11.3 0.00 0.00 0.00 51 1008.4
20260504204210 73 264 5.2 7.8 0.00 0.00 0.00 53 1008.4
20260504203709 74 233 4.3 7.8 0.00 0.00 0.00 51 1008.5
20260504203206 75 228 4.3 7.8 0.00 0.00 0.00 49 1008.4
20260504202706 73 182 5.2 9.6 0.00 0.00 0.00 52 1008.7
20260504202203 74 222 9.6 13.9 0.00 0.00 0.00 49 1008.7
20260504201700 75 213 3.5 7.0 0.00 0.00 0.00 50 1008.7
20260504201158 75 187 7.0 9.6 0.00 0.00 0.00 50 1009.0
20260504200655 74 224 6.1 11.3 0.00 0.00 0.00 49 1009.1
20260504200151 73 281 3.5 5.2 0.00 0.00 0.00 51 1009.2
20260504195647 73 309 1.7 5.2 0.00 0.00 0.00 55 1009.4
20260504195143 73 207 2.6 7.0 0.00 0.00 0.00 54 1009.5
20260504194640 72 208 5.2 7.0 0.00 0.00 0.00 57 1009.5
20260504194137 72 231 5.2 7.0 0.00 0.00 0.00 59 1009.7
20260504193633 71 217 5.2 6.1 0.00 0.00 0.00 60 1009.7
20260504193131 69 223 4.3 7.8 0.00 0.00 0.00 60 1009.7
20260504192629 69 206 5.2 6.1 0.00 0.00 0.00 60 1010.0
20260504192127 69 233 3.5 7.8 0.00 0.00 0.00 61 1010.1
20260504191625 69 223 6.1 7.8 0.00 0.00 0.00 60 1010.0
20260504191121 69 206 5.2 7.8 0.00 0.00 0.00 61 1009.8
20260504190617 68 243 5.2 8.7 0.00 0.00 0.00 60 1009.7
20260504190114 68 222 5.2 9.6 0.00 0.00 0.00 59 1009.9
20260504185610 69 216 9.6 12.2 0.00 0.00 0.00 58 1009.5
20260504185107 69 227 7.8 15.6 0.00 0.00 0.00 58 1009.5
20260504184603 69 206 10.4 14.8 0.00 0.00 0.00 56 1009.7
20260504184058 69 212 7.0 13.0 0.00 0.00 0.00 58 1009.2
20260504183555 69 228 8.7 11.3 0.00 0.00 0.00 57 1009.5
20260504183053 68 244 10.4 11.3 0.00 0.00 0.00 56 1009.5
20260504182550 67 230 7.8 11.3 0.00 0.00 0.00 58 1009.2
20260504182047 68 202 6.1 8.7 0.00 0.00 0.00 59 1009.5
20260504181544 68 200 8.7 12.2 0.00 0.00 0.00 57 1009.4
20260504181043 67 212 8.7 12.2 0.00 0.00 0.00 58 1009.4
20260504180541 67 234 7.8 12.2 0.00 0.00 0.00 58 1009.5
20260504180040 67 202 6.1 12.2 0.00 0.00 0.00 59 1009.4
20260504175537 67 205 12.2 14.8 0.00 0.00 0.00 58 1008.8
20260504175033 67 195 9.6 12.2 0.00 0.00 0.00 59 1008.7
20260504174531 68 215 6.1 7.8 0.00 0.00 0.00 60 1009.1
20260504174028 67 175 4.3 7.8 0.00 0.00 0.00 59 1009.1
20260504173525 67 196 4.3 7.8 0.00 0.00 0.00 62 1009.0
20260504173022 67 197 7.8 14.8 0.00 0.00 0.00 57 1009.2
20260504172518 66 184 6.1 12.2 0.00 0.00 0.00 61 1009.1
20260504172015 66 171 5.2 8.7 0.00 0.00 0.00 60 1009.1
20260504171512 66 186 7.8 11.3 0.00 0.00 0.00 57 1009.5
20260504171009 66 184 8.7 12.2 0.00 0.00 0.00 56 1009.7
20260504170504 66 193 4.3 12.2 0.00 0.00 0.00 58 1009.8
20260504160425 64 208 4.3 7.0 0.00 0.00 0.00 62 1010.1
20260504150848 62 213 5.2 8.7 0.00 0.00 0.00 64 1010.2
20260504150345 63 219 6.1 13.0 0.00 0.00 0.00 62 1010.4
20260504141315 59 170 7.0 11.3 0.00 0.00 0.00 67 1010.8
20260504140812 59 195 5.2 11.3 0.00 0.00 0.00 66 1010.7
20260504140307 58 218 9.6 11.3 0.00 0.00 0.00 69 1010.9
20260504130736 55 215 7.0 9.6 0.00 0.00 0.00 71 1011.2
20260504130232 55 215 7.0 11.3 0.00 0.00 0.00 70 1011.2
20260504120156 53 204 5.2 7.8 0.00 0.00 0.00 66 1010.9
20260504110623 51 169 4.3 6.1 0.00 0.00 0.00 66 1010.9
20260504110119 51 190 6.1 7.8 0.00 0.00 0.00 65 1010.8
20260504100545 50 190 3.5 7.0 0.00 0.00 0.00 65 1010.9
20260504081939 51 149 6.1 8.7 0.00 0.00 0.00 60 1011.8
20260504081436 52 193 5.2 7.0 0.00 0.00 0.00 61 1011.8
20260504080931 52 192 5.2 7.8 0.00 0.00 0.00 60 1011.7
20260504080428 52 165 6.1 7.8 0.00 0.00 0.00 60 1012.0
20260504070356 52 167 7.0 7.0 0.00 0.00 0.00 59 1012.3
20260504050743 51 186 3.5 3.5 0.00 0.00 0.00 63 1013.3
20260504050241 51 154 3.5 3.5 0.00 0.00 0.00 62 1013.3
20260504045733 51 176 2.6 3.5 0.00 0.00 0.00 62 1013.5
20260504045233 51 188 0.9 3.5 0.00 0.00 0.00 62 1013.4
20260504044731 51 195 1.7 5.2 0.00 0.00 0.00 61 1013.6
20260504044228 51 204 2.6 2.6 0.00 0.00 0.00 61 1013.7
20260504043725 51 203 2.6 2.6 0.00 0.00 0.00 61 1013.6
20260504043222 51 172 1.7 2.6 0.00 0.00 0.00 61 1013.8
20260504042720 52 214 2.6 3.5 0.00 0.00 0.00 61 1013.7
20260504042216 51 155 3.5 3.5 0.00 0.00 0.00 60 1013.6
20260504041712 52 182 0.9 3.5 0.00 0.00 0.00 60 1013.8
20260504041208 52 155 1.7 3.5 0.00 0.00 0.00 59 1013.8
20260504040704 52 162 2.6 5.2 0.00 0.00 0.00 60 1013.9
20260504040202 52 186 1.7 1.7 0.00 0.00 0.00 60 1013.9
20260504035658 52 182 0.9 2.6 0.00 0.00 0.00 59 1014.0
20260504035155 53 173 1.7 2.6 0.00 0.00 0.00 59 1014.1
20260504034653 53 151 1.7 2.6 0.00 0.00 0.00 57 1013.9
20260504034149 53 164 2.6 3.5 0.00 0.00 0.00 56 1014.0
20260504033648 53 169 1.7 6.1 0.00 0.00 0.00 56 1014.0
20260504033145 53 184 2.6 6.1 0.00 0.00 0.00 56 1014.1
20260504032641 54 185 4.3 5.2 0.00 0.00 0.00 54 1014.2
20260504032138 54 167 2.6 5.2 0.00 0.00 0.00 54 1014.2
20260504031635 54 199 3.5 3.5 0.00 0.00 0.00 54 1014.3
20260504031132 54 184 2.6 3.5 0.00 0.00 0.00 53 1014.2
20260504030628 54 189 2.6 3.5 0.00 0.00 0.00 52 1014.3
20260504030125 55 203 3.5 3.5 0.00 0.00 0.00 52 1014.2
20260504025622 55 178 3.5 3.5 0.00 0.00 0.00 52 1014.4
20260504025119 55 195 3.5 6.1 0.00 0.00 0.00 51 1014.1
20260504024616 54 208 3.5 3.5 0.00 0.00 0.00 56 1014.4
20260504024113 54 207 2.6 7.0 0.00 0.00 0.00 55 1014.6
20260504023609 55 209 3.5 5.2 0.00 0.00 0.00 55 1014.4
20260504023105 55 223 3.5 7.0 0.00 0.00 0.00 52 1014.1
20260504022602 55 192 7.8 8.7 0.00 0.00 0.00 51 1014.6
20260504022058 55 211 5.2 9.6 0.00 0.00 0.00 48 1014.5
20260504021556 55 192 4.3 6.1 0.00 0.00 0.00 47 1014.3
20260504021052 55 178 3.5 5.2 0.00 0.00 0.00 48 1013.9
20260504020549 55 182 0.9 2.6 0.00 0.00 0.00 51 1014.0
20260504020046 55 211 2.6 3.5 0.00 0.00 0.00 49 1014.3
20260504015542 55 195 1.7 3.5 0.00 0.00 0.00 49 1013.9
20260504015038 55 187 1.7 2.6 0.00 0.00 0.00 50 1014.0
20260504014534 55 208 0.9 3.5 0.00 0.00 0.00 50 1014.1
20260504014032 55 223 1.7 1.7 0.00 0.00 0.00 50 1014.1
20260504013529 55 203 0.9 1.7 0.00 0.00 0.00 50 1013.9
20260504013026 56 203 1.7 2.6 0.00 0.00 0.00 49 1014.2
20260504012524 56 209 2.6 2.6 0.00 0.00 0.00 47 1014.3
20260504012022 56 190 2.6 2.6 0.00 0.00 0.00 47 1014.2
20260504011518 56 182 1.7 3.5 0.00 0.00 0.00 47 1014.2
20260504011014 56 195 2.6 3.5 0.00 0.00 0.00 45 1014.2
20260504010510 56 173 3.5 3.5 0.00 0.00 0.00 45 1014.2